Date String (YYYY-MM-DD hh:mm:ss) UTC,Instrument flags,absolute air pressure of the measurement (hPa),sample flow rate (lpm),inlet stack bypass flow (lpm),air temperature of the measurement (°C),ambient temperature measured by the external sensor (°C),aerosol sample conditioner tube jacket temperature (°C),OPC LED temperature (°C),internal box temperature (°C),relative humidity of the measurement (%),span deviation,mass concentration of particles derived from Lorenz-Mie calculation of OPC scattering (μg/m³),mass concentration of particles derived from Lorenz-Mie calculation of OPC scattering (μg/m³),mass concentration of particles derived from Lorenz-Mie calculation of OPC scattering (μg/m³)
DateTimeUTC,F1_M11,P_M11,Q1_M11,Q2_M11,T1_M11,T2_M11,T3_M11,T4_M11,T5_M11,U1_M11,ZSPAN_M11,X0_M11,X2_M11,X1_M11
2024-01-01 07:00:00,SystemResetWarning,0831.3,4.99,000.00,021.4,020.5,000.0,029.8,022.8,14.7,0000.0,0013.17,0006.82,0006.03
2024-01-01 07:01:00,SystemResetWarning,0831.3,5.00,000.00,021.4,020.5,000.0,029.8,022.8,14.7,0000.0,0013.18,0006.84,0006.04
2024-01-01 07:02:00,SystemResetWarning,0831.3,5.00,000.00,021.4,020.5,000.0,029.8,022.8,14.8,0000.0,0013.16,0006.84,0006.03
2024-01-01 07:03:00,SystemResetWarning,0831.3,5.00,000.00,021.4,020.5,000.0,029.8,022.8,14.8,0000.0,0013.13,0006.82,0006.01
2024-01-01 07:04:00,SystemResetWarning,0831.3,5.01,000.00,021.4,020.5,000.0,029.8,022.8,14.8,0000.0,0013.12,0006.86,0006.01
2024-01-01 07:05:00,SystemResetWarning,0831.3,5.00,000.00,021.4,020.5,000.0,029.8,022.8,14.8,0000.0,0013.17,0006.90,0006.02
2024-01-01 07:06:00,SystemResetWarning,0831.2,5.00,000.00,021.4,020.5,000.0,029.8,022.8,14.8,0000.0,0013.33,0006.96,0006.04
2024-01-01 07:07:00,SystemResetWarning,0831.2,4.99,000.00,021.4,020.5,000.0,029.8,022.7,14.8,0000.0,0012.58,0006.98,0006.04
2024-01-01 07:08:00,SystemResetWarning,0831.2,4.99,000.00,021.4,020.5,000.0,029.8,022.7,14.8,0000.0,0011.46,0006.92,0006.03
2024-01-01 07:09:00,SystemResetWarning,0831.2,5.01,000.00,021.4,020.5,000.0,029.8,022.7,14.8,0000.0,0010.87,0006.84,0006.02
2024-01-01 07:10:00,SystemResetWarning,0831.3,5.00,000.00,021.4,020.5,000.0,029.8,022.7,14.8,0000.0,0011.71,0006.81,0006.01
2024-01-01 07:11:00,SystemResetWarning,0831.3,5.00,000.00,021.4,020.5,000.0,029.7,022.7,14.8,0000.0,0013.11,0006.83,0006.03
2024-01-01 07:12:00,SystemResetWarning,0831.2,5.00,000.00,021.3,020.5,000.0,029.7,022.7,14.8,0000.4,0013.38,0006.87,0006.03
2024-01-01 07:13:00,SystemResetWarning,0831.2,5.00,000.00,021.4,020.5,000.0,029.7,022.7,14.7,0004.5,0013.47,0006.86,0006.04
2024-01-01 07:14:00,SystemResetWarning,0831.2,5.00,000.00,021.3,020.5,000.0,029.7,022.7,14.7,0004.5,0013.68,0006.86,0006.05
2024-01-01 07:15:00,SystemResetWarning,0831.2,5.00,000.00,021.3,020.5,000.0,029.7,022.7,14.7,0004.3,0013.82,0006.88,0006.06
2024-01-01 07:16:00,SystemResetWarning,0831.2,5.00,000.00,021.3,020.5,000.0,029.7,022.7,14.7,0004.1,0013.43,0006.83,0006.06
2024-01-01 07:17:00,SystemResetWarning,0831.2,5.00,000.00,021.3,020.5,000.0,029.7,022.7,14.7,0004.2,0013.74,0006.77,0006.05
2024-01-01 07:18:00,SystemResetWarning,0831.2,5.00,000.00,021.3,020.5,000.0,029.7,022.7,14.7,0004.4,0013.69,0006.71,0006.02
2024-01-01 07:19:00,SystemResetWarning,0831.2,5.00,000.00,021.3,020.5,000.0,029.7,022.7,14.6,0004.5,0013.66,0006.70,0006.01
2024-01-01 07:20:00,SystemResetWarning,0831.1,5.00,000.00,021.3,020.5,000.0,029.7,022.7,14.6,0004.4,0014.16,0006.71,0005.99
2024-01-01 07:21:00,SystemResetWarning,0831.2,5.00,000.00,021.3,020.5,000.0,029.7,022.7,14.6,0004.2,0013.58,0006.70,0005.98
2024-01-01 07:22:00,SystemResetWarning,0831.1,5.00,000.00,021.3,020.5,000.0,029.7,022.7,14.6,0003.9,0011.94,0006.65,0005.94
2024-01-01 07:23:00,SystemResetWarning,0831.1,4.99,000.00,021.3,020.5,000.0,029.7,022.7,14.6,0004.1,0011.71,0006.62,0005.93
2024-01-01 07:24:00,SystemResetWarning,0831.1,5.00,000.00,021.3,020.5,000.0,029.7,022.7,14.6,0004.4,0011.63,0006.59,0005.91
2024-01-01 07:25:00,SystemResetWarning,0831.1,5.00,000.00,021.3,020.5,000.0,029.7,022.7,14.7,0004.3,0011.73,0006.60,0005.89
2024-01-01 07:26:00,SystemResetWarning,0831.1,5.00,000.00,021.3,020.5,000.0,029.7,022.7,14.7,0004.0,0011.41,0006.51,0005.85
2024-01-01 07:27:00,SystemResetWarning,0831.2,5.00,000.00,021.3,020.5,000.0,029.7,022.7,14.7,0001.9,0011.52,0006.51,0005.81
2024-01-01 07:28:00,SystemResetWarning,0831.1,5.00,000.00,021.3,020.5,000.0,029.7,022.7,14.7,0000.1,0011.15,0006.47,0005.79
2024-01-01 07:29:00,SystemResetWarning,0831.1,5.00,000.00,021.3,020.5,000.0,029.7,022.7,14.6,0003.3,0011.35,0006.44,0005.78
2024-01-01 07:30:00,SystemResetWarning,0831.2,4.99,000.00,021.3,020.5,000.0,029.7,022.7,14.6,0003.2,0011.88,0006.43,0005.81
2024-01-01 07:31:00,SystemResetWarning,0831.1,5.00,000.00,021.3,020.5,000.0,029.7,022.7,14.6,0000.9,0011.80,0006.46,0005.84
2024-01-01 07:32:00,SystemResetWarning,0831.1,5.00,000.00,021.3,020.5,000.0,029.7,022.7,14.6,0000.0,0011.82,0006.54,0005.87
2024-01-01 07:33:00,SystemResetWarning,0831.1,5.00,000.00,021.3,020.5,000.0,029.7,022.7,14.5,0000.0,0012.01,0006.64,0005.94
2024-01-01 07:34:00,SystemResetWarning,0831.1,5.01,000.00,021.3,020.5,000.0,029.7,022.7,14.5,0000.0,0012.12,0006.67,0005.98
2024-01-01 07:35:00,SystemResetWarning,0831.1,5.01,000.00,021.3,020.5,000.0,029.7,022.7,14.4,0000.0,0012.11,0006.68,0006.02
2024-01-01 07:36:00,SystemResetWarning,0831.2,5.00,000.00,021.3,020.5,000.0,029.7,022.7,14.4,0000.0,0012.12,0006.71,0006.07
2024-01-01 07:37:00,SystemResetWarning,0831.1,5.00,000.00,021.3,020.5,000.0,029.7,022.7,14.4,0000.0,0012.76,0006.79,0006.15
2024-01-01 07:38:00,SystemResetWarning,0831.1,5.00,000.00,021.3,020.5,000.0,029.6,022.7,14.4,0000.0,0012.86,0006.82,0006.21
2024-01-01 07:39:00,SystemResetWarning,0831.2,5.00,000.00,021.3,020.5,000.0,029.6,022.7,14.4,0000.0,0013.30,0006.89,0006.26
2024-01-01 07:40:00,SystemResetWarning,0831.1,4.99,000.00,021.3,020.4,000.0,029.6,022.7,14.4,0000.0,0014.21,0007.00,0006.32
2024-01-01 07:41:00,SystemResetWarning,0831.2,4.99,000.00,021.3,020.4,000.0,029.6,022.7,14.5,0001.0,0014.24,0007.09,0006.35
2024-01-01 07:42:00,SystemResetWarning,0831.1,5.00,000.00,021.3,020.4,000.0,029.6,022.7,14.5,0001.5,0013.99,0007.14,0006.37
2024-01-01 07:43:00,SystemResetWarning,0831.1,5.01,000.00,021.3,020.4,000.0,029.6,022.7,14.5,0001.9,0014.05,0007.10,0006.37
2024-01-01 07:44:00,SystemResetWarning,0831.0,5.01,000.00,021.3,020.4,000.0,029.6,022.6,14.6,0001.5,0014.80,0007.12,0006.38
2024-01-01 07:45:00,SystemResetWarning,0831.0,5.00,000.00,021.3,020.4,000.0,029.6,022.6,14.6,0000.8,0015.23,0007.11,0006.38
2024-01-01 07:46:00,SystemResetWarning,0831.0,4.99,000.00,021.3,020.4,000.0,029.6,022.6,14.6,0000.0,0015.87,0007.13,0006.38
2024-01-01 07:47:00,SystemResetWarning,0830.9,4.99,000.00,021.3,020.4,000.0,029.6,022.6,14.6,0000.0,0016.14,0007.12,0006.38
2024-01-01 07:48:00,SystemResetWarning,0830.9,5.00,000.00,021.2,020.4,000.0,029.6,022.6,14.7,0000.0,0016.06,0007.11,0006.38
2024-01-01 07:49:00,SystemResetWarning,0830.9,5.01,000.00,021.2,020.4,000.0,029.6,022.6,14.7,0000.0,0016.35,0007.11,0006.36
2024-01-01 07:50:00,SystemResetWarning,0830.9,5.00,000.00,021.2,020.4,000.0,029.6,022.6,14.7,0000.0,0016.29,0007.13,0006.36
2024-01-01 07:51:00,SystemResetWarning,0831.0,5.00,000.00,021.2,020.4,000.0,029.6,022.6,14.8,0000.0,0016.41,0007.07,0006.35
2024-01-01 07:52:00,SystemResetWarning,0830.9,5.00,000.00,021.2,020.3,000.0,029.6,022.6,14.8,0000.0,0016.50,0007.02,0006.35
2024-01-01 07:53:00,SystemResetWarning,0830.9,5.00,000.00,021.2,020.3,000.0,029.6,022.6,14.8,0000.0,0016.84,0007.01,0006.35
2024-01-01 07:54:00,SystemResetWarning,0831.0,5.01,000.00,021.2,020.3,000.0,029.6,022.6,14.8,0000.0,0016.67,0007.03,0006.35
2024-01-01 07:55:00,SystemResetWarning,0830.9,5.00,000.00,021.2,020.3,000.0,029.6,022.6,14.8,0000.0,0016.66,0007.02,0006.35
2024-01-01 07:56:00,SystemResetWarning,0830.9,5.00,000.00,021.2,020.3,000.0,029.6,022.6,14.8,0000.0,0016.23,0007.01,0006.34
2024-01-01 07:57:00,SystemResetWarning,0831.0,5.00,000.00,021.2,020.3,000.0,029.6,022.6,14.8,0000.0,0016.80,0007.00,0006.34
2024-01-01 07:58:00,SystemResetWarning,0830.9,5.00,000.00,021.2,020.3,000.0,029.6,022.6,14.8,0000.0,0016.64,0007.00,0006.35
2024-01-01 07:59:00,SystemResetWarning,0830.9,5.00,000.00,021.2,020.3,000.0,029.6,022.6,14.8,0000.0,0016.29,0007.03,0006.36
